Location: Augsburg
(48.3836°N, 10.8929°E)
Time: 16:46:23
(UTC+02:00)

ISS - Pass Details

Date: 23 May 2021
Orbit: 417 x 422 km, 51.6° (Epoch: 12 June)

Event Time Altitude Azimuth Distance (km) Brightness Sun altitude
Rises 22:09:26 0° 281° (W) 2,365 1.0 -9.6°
Reaches altitude 10° 22:11:35 10° 287° (WNW) 1,502 0.1 -9.9°
Maximum altitude 22:14:51 46° 3° (N) 575 -2.7 -10.2°
Drops below altitude 10° 22:18:07 10° 78° (ENE) 1,504 -1.2 -10.6°
Enters shadow 22:19:29 - 83° (E) 2,050 -0.6 -10.7°
